Back to catalog

DELTA 1 DEB

AliveLEO
NORAD 7185·DEBRIS·🇺🇸 United States

Launched Nov 6, 1973 from Vandenberg Space Force Base

Loading…

Next Passes (next 24 hours)

TLE

FreshSource: Space-Track

Epoch: Sep 13, 2026, 09:01 UTC

1 07185U 73086EW  26256.37629125  .00000212  00000-0  22582-2 0  9997
2 07185 101.8435  40.4683 0146129 148.0074 239.8418 12.23713287352716

Track DELTA 1 DEB in real time with AllMySat

Download on the App Store